Year,Month,Day,Hour,Minute,Value (Times are PST for windgust in km/hr)
2015,08,30,00,00,6.40
2015,08,30,00,01,14.50
2015,08,30,00,02,8.10
2015,08,30,00,03,9.60
2015,08,30,00,04,9.60
2015,08,30,00,05,8.10
2015,08,30,00,06,12.90
2015,08,30,00,07,9.60
2015,08,30,00,08,8.10
2015,08,30,00,09,9.60
2015,08,30,00,10,14.50
2015,08,30,00,11,12.90
2015,08,30,00,12,14.50
2015,08,30,00,13,8.10
2015,08,30,00,14,9.60
2015,08,30,00,15,14.50
2015,08,30,00,16,12.90
2015,08,30,00,17,11.30
2015,08,30,00,18,11.30
2015,08,30,00,19,11.30
2015,08,30,00,20,16.10
2015,08,30,00,21,16.10
2015,08,30,00,22,12.90
2015,08,30,00,23,9.60
2015,08,30,00,24,12.90
2015,08,30,00,25,12.90
2015,08,30,00,26,12.90
2015,08,30,00,27,9.60
2015,08,30,00,28,12.90
2015,08,30,00,29,12.90
2015,08,30,00,30,14.50
2015,08,30,00,31,9.60
2015,08,30,00,32,9.60
2015,08,30,00,33,12.90
2015,08,30,00,34,8.10
2015,08,30,00,35,14.50
2015,08,30,00,36,12.90
2015,08,30,00,37,14.50
2015,08,30,00,38,16.10
2015,08,30,00,39,12.90
2015,08,30,00,40,9.60
2015,08,30,00,41,12.90
2015,08,30,00,42,14.50
2015,08,30,00,43,11.30
2015,08,30,00,44,12.90
2015,08,30,00,45,9.60
2015,08,30,00,46,8.10
2015,08,30,00,47,6.40
2015,08,30,00,48,3.20
2015,08,30,00,49,9.60
2015,08,30,00,50,14.50
2015,08,30,00,51,8.10
2015,08,30,00,52,11.30
2015,08,30,00,53,12.90
2015,08,30,00,54,9.60
2015,08,30,00,55,8.10
2015,08,30,00,56,8.10
2015,08,30,00,57,6.40
2015,08,30,00,58,6.40
2015,08,30,00,59,8.10
2015,08,30,01,00,9.60
2015,08,30,01,01,9.60
2015,08,30,01,02,11.30
2015,08,30,01,03,14.50
2015,08,30,01,04,6.40
2015,08,30,01,05,12.90
2015,08,30,01,06,11.30
2015,08,30,01,07,6.40
2015,08,30,01,08,8.10
2015,08,30,01,09,12.90
2015,08,30,01,10,8.10
2015,08,30,01,11,6.40
2015,08,30,01,12,6.40
2015,08,30,01,13,6.40
2015,08,30,01,14,3.20
2015,08,30,01,15,3.20
2015,08,30,01,16,4.80
2015,08,30,01,17,4.80
2015,08,30,01,18,4.80
2015,08,30,01,19,3.20
2015,08,30,01,20,4.80
2015,08,30,01,21,4.80
2015,08,30,01,22,3.20
2015,08,30,01,23,3.20
2015,08,30,01,24,4.80
2015,08,30,01,25,4.80
2015,08,30,01,26,4.80
2015,08,30,01,27,4.80
2015,08,30,01,28,6.40
2015,08,30,01,29,11.30
2015,08,30,01,30,9.60
2015,08,30,01,31,9.60
2015,08,30,01,32,6.40
2015,08,30,01,33,6.40
2015,08,30,01,34,4.80
2015,08,30,01,35,4.80
2015,08,30,01,36,9.60
2015,08,30,01,37,4.80
2015,08,30,01,38,6.40
2015,08,30,01,39,8.10
2015,08,30,01,40,8.10
2015,08,30,01,41,4.80
2015,08,30,01,42,4.80
2015,08,30,01,43,4.80
2015,08,30,01,44,6.40
2015,08,30,01,45,6.40
2015,08,30,01,46,6.40
2015,08,30,01,47,4.80
2015,08,30,01,48,4.80
2015,08,30,01,49,6.40
2015,08,30,01,50,4.80
2015,08,30,01,51,3.20
2015,08,30,01,52,6.40
2015,08,30,01,53,4.80
2015,08,30,01,54,3.20
2015,08,30,01,55,6.40
2015,08,30,01,56,8.10
2015,08,30,01,57,6.40
2015,08,30,01,58,8.10
2015,08,30,01,59,8.10
2015,08,30,02,00,9.60
2015,08,30,02,01,11.30
2015,08,30,02,02,9.60
2015,08,30,02,03,9.60
2015,08,30,02,04,12.90
2015,08,30,02,05,11.30
2015,08,30,02,06,11.30
2015,08,30,02,07,6.40
2015,08,30,02,08,9.60
2015,08,30,02,09,11.30
2015,08,30,02,10,9.60
2015,08,30,02,11,9.60
2015,08,30,02,12,8.10
2015,08,30,02,13,8.10
2015,08,30,02,14,9.60
2015,08,30,02,15,9.60
2015,08,30,02,16,11.30
2015,08,30,02,17,9.60
2015,08,30,02,18,8.10
2015,08,30,02,19,9.60
2015,08,30,02,20,6.40
2015,08,30,02,21,8.10
2015,08,30,02,22,9.60
2015,08,30,02,23,8.10
2015,08,30,02,24,4.80
2015,08,30,02,25,8.10
2015,08,30,02,26,4.80
2015,08,30,02,27,4.80
2015,08,30,02,28,4.80
2015,08,30,02,29,4.80
2015,08,30,02,30,4.80
2015,08,30,02,31,4.80
2015,08,30,02,32,4.80
2015,08,30,02,33,4.80
2015,08,30,02,34,6.40
2015,08,30,02,35,4.80
2015,08,30,02,36,6.40
2015,08,30,02,37,6.40
2015,08,30,02,38,4.80
2015,08,30,02,39,6.40
2015,08,30,02,40,9.60
2015,08,30,02,41,11.30
2015,08,30,02,42,6.40
2015,08,30,02,43,8.10
2015,08,30,02,44,8.10
2015,08,30,02,45,6.40
2015,08,30,02,46,6.40
2015,08,30,02,47,8.10
2015,08,30,02,48,6.40
2015,08,30,02,49,4.80
2015,08,30,02,50,6.40
2015,08,30,02,51,4.80
2015,08,30,02,52,3.20
2015,08,30,02,53,6.40
2015,08,30,02,54,6.40
2015,08,30,02,55,6.40
2015,08,30,02,56,6.40
2015,08,30,02,57,6.40
2015,08,30,02,58,6.40
2015,08,30,02,59,6.40
2015,08,30,03,00,4.80
2015,08,30,03,01,8.10
2015,08,30,03,02,6.40
2015,08,30,03,03,6.40
2015,08,30,03,04,4.80
2015,08,30,03,05,6.40
2015,08,30,03,06,4.80
2015,08,30,03,07,3.20
2015,08,30,03,08,4.80
2015,08,30,03,09,6.40
2015,08,30,03,10,3.20
2015,08,30,03,11,3.20
2015,08,30,03,12,3.20
2015,08,30,03,13,3.20
2015,08,30,03,14,1.60
2015,08,30,03,15,1.60
2015,08,30,03,16,4.80
2015,08,30,03,17,4.80
2015,08,30,03,18,4.80
2015,08,30,03,19,3.20
2015,08,30,03,20,1.60
2015,08,30,03,21,1.60
2015,08,30,03,22,1.60
2015,08,30,03,23,3.20
2015,08,30,03,24,1.60
2015,08,30,03,25,1.60
2015,08,30,03,26,3.20
2015,08,30,03,27,4.80
2015,08,30,03,28,6.40
2015,08,30,03,29,4.80
2015,08,30,03,30,3.20
2015,08,30,03,31,3.20
2015,08,30,03,32,1.60
2015,08,30,03,33,1.60
2015,08,30,03,34,1.60
2015,08,30,03,35,3.20
2015,08,30,03,36,3.20
2015,08,30,03,37,3.20
2015,08,30,03,38,3.20
2015,08,30,03,39,3.20
2015,08,30,03,40,4.80
2015,08,30,03,41,3.20
2015,08,30,03,42,1.60
2015,08,30,03,45,1.60
2015,08,30,03,46,1.60
2015,08,30,03,47,1.60
2015,08,30,03,48,1.60
2015,08,30,03,49,1.60
2015,08,30,03,50,1.60
2015,08,30,03,51,3.20
2015,08,30,03,52,3.20
2015,08,30,03,53,4.80
2015,08,30,03,54,4.80
2015,08,30,03,55,6.40
2015,08,30,03,56,6.40
2015,08,30,03,57,3.20
2015,08,30,03,58,3.20
2015,08,30,03,59,1.60
2015,08,30,04,00,1.60
2015,08,30,04,01,1.60
2015,08,30,04,02,3.20
2015,08,30,04,03,3.20
2015,08,30,04,04,4.80
2015,08,30,04,05,3.20
2015,08,30,04,06,4.80
2015,08,30,04,07,4.80
2015,08,30,04,08,6.40
2015,08,30,04,09,4.80
2015,08,30,04,10,3.20
2015,08,30,04,11,3.20
2015,08,30,04,12,3.20
2015,08,30,04,13,3.20
2015,08,30,04,14,3.20
2015,08,30,04,15,3.20
2015,08,30,04,16,3.20
2015,08,30,04,17,1.60
2015,08,30,04,18,3.20
2015,08,30,04,19,3.20
2015,08,30,04,20,3.20
2015,08,30,04,21,3.20
2015,08,30,04,22,3.20
2015,08,30,04,23,4.80
2015,08,30,04,24,4.80
2015,08,30,04,25,4.80
2015,08,30,04,26,6.40
2015,08,30,04,27,6.40
2015,08,30,04,28,8.10
2015,08,30,04,29,6.40
2015,08,30,04,30,4.80
2015,08,30,04,31,8.10
2015,08,30,04,32,8.10
2015,08,30,04,33,6.40
2015,08,30,04,34,3.20
2015,08,30,04,35,4.80
2015,08,30,04,36,4.80
2015,08,30,04,37,4.80
2015,08,30,04,38,4.80
2015,08,30,04,39,3.20
2015,08,30,04,40,3.20
2015,08,30,04,41,3.20
2015,08,30,04,42,6.40
2015,08,30,04,43,4.80
2015,08,30,04,44,3.20
2015,08,30,04,45,3.20
2015,08,30,04,46,4.80
2015,08,30,04,47,3.20
2015,08,30,04,48,3.20
2015,08,30,04,49,1.60
2015,08,30,04,50,3.20
2015,08,30,04,51,3.20
2015,08,30,04,52,1.60
2015,08,30,04,53,3.20
2015,08,30,04,54,3.20
2015,08,30,04,55,4.80
2015,08,30,04,56,4.80
2015,08,30,04,57,4.80
2015,08,30,04,58,6.40
2015,08,30,04,59,6.40
2015,08,30,05,00,8.10
2015,08,30,05,01,9.60
2015,08,30,05,02,6.40
2015,08,30,05,03,6.40
2015,08,30,05,04,6.40
2015,08,30,05,05,8.10
2015,08,30,05,06,8.10
2015,08,30,05,07,6.40
2015,08,30,05,08,6.40
2015,08,30,05,09,4.80
2015,08,30,05,10,6.40
2015,08,30,05,11,4.80
2015,08,30,05,12,4.80
2015,08,30,05,13,8.10
2015,08,30,05,14,8.10
2015,08,30,05,15,9.60
2015,08,30,05,16,6.40
2015,08,30,05,17,4.80
2015,08,30,05,18,4.80
2015,08,30,05,19,6.40
2015,08,30,05,20,6.40
2015,08,30,05,21,3.20
2015,08,30,05,22,6.40
2015,08,30,05,23,6.40
2015,08,30,05,24,4.80
2015,08,30,05,25,4.80
2015,08,30,05,26,6.40
2015,08,30,05,27,3.20
2015,08,30,05,28,3.20
2015,08,30,05,29,6.40
2015,08,30,05,30,4.80
2015,08,30,05,31,3.20
2015,08,30,05,32,3.20
2015,08,30,05,33,1.60
2015,08,30,05,34,4.80
2015,08,30,05,35,3.20
2015,08,30,05,36,4.80
2015,08,30,05,37,3.20
2015,08,30,05,38,1.60
2015,08,30,05,39,3.20
2015,08,30,05,40,1.60
2015,08,30,05,41,3.20
2015,08,30,05,42,3.20
2015,08,30,05,43,3.20
2015,08,30,05,44,3.20
2015,08,30,05,48,1.60
2015,08,30,05,49,3.20
2015,08,30,05,50,4.80
2015,08,30,05,51,4.80
2015,08,30,05,52,4.80
2015,08,30,05,53,4.80
2015,08,30,05,54,6.40
2015,08,30,05,55,6.40
2015,08,30,05,56,4.80
2015,08,30,05,57,4.80
2015,08,30,05,58,4.80
2015,08,30,05,59,4.80
2015,08,30,06,00,4.80
2015,08,30,06,01,6.40
2015,08,30,06,02,6.40
2015,08,30,06,03,3.20
2015,08,30,06,04,6.40
2015,08,30,06,05,4.80
2015,08,30,06,06,4.80
2015,08,30,06,07,6.40
2015,08,30,06,08,3.20
2015,08,30,06,09,4.80
2015,08,30,06,10,6.40
2015,08,30,06,11,6.40
2015,08,30,06,12,9.60
2015,08,30,06,13,6.40
2015,08,30,06,14,8.10
2015,08,30,06,15,6.40
2015,08,30,06,16,4.80
2015,08,30,06,17,8.10
2015,08,30,06,18,9.60
2015,08,30,06,19,4.80
2015,08,30,06,20,8.10
2015,08,30,06,21,4.80
2015,08,30,06,22,4.80
2015,08,30,06,23,6.40
2015,08,30,06,24,6.40
2015,08,30,06,25,3.20
2015,08,30,06,26,4.80
2015,08,30,06,27,3.20
2015,08,30,06,28,3.20
2015,08,30,06,29,3.20
2015,08,30,06,30,3.20
2015,08,30,06,31,3.20
2015,08,30,06,32,3.20
2015,08,30,06,33,1.60
2015,08,30,06,34,1.60
2015,08,30,06,37,1.60
2015,08,30,06,38,1.60
2015,08,30,06,39,1.60
2015,08,30,06,40,1.60
2015,08,30,06,41,1.60
2015,08,30,06,42,3.20
2015,08,30,06,43,6.40
2015,08,30,06,44,4.80
2015,08,30,06,45,4.80
2015,08,30,06,46,4.80
2015,08,30,06,47,4.80
2015,08,30,06,48,4.80
2015,08,30,06,49,6.40
2015,08,30,06,50,6.40
2015,08,30,06,51,11.30
2015,08,30,06,52,6.40
2015,08,30,06,53,4.80
2015,08,30,06,54,3.20
2015,08,30,06,55,3.20
2015,08,30,06,56,3.20
2015,08,30,06,57,1.60
2015,08,30,06,58,1.60
2015,08,30,06,59,1.60
2015,08,30,07,01,1.60
2015,08,30,07,02,3.20
2015,08,30,07,03,3.20
2015,08,30,07,04,3.20
2015,08,30,07,05,4.80
2015,08,30,07,06,4.80
2015,08,30,07,07,3.20
2015,08,30,07,08,3.20
2015,08,30,07,09,4.80
2015,08,30,07,10,4.80
2015,08,30,07,11,4.80
2015,08,30,07,12,3.20
2015,08,30,07,13,6.40
2015,08,30,07,14,3.20
2015,08,30,07,15,6.40
2015,08,30,07,16,6.40
2015,08,30,07,17,4.80
2015,08,30,07,18,4.80
2015,08,30,07,19,1.60
2015,08,30,07,20,1.60
2015,08,30,07,21,3.20
2015,08,30,07,22,3.20
2015,08,30,07,23,3.20
2015,08,30,07,24,3.20
2015,08,30,07,25,3.20
2015,08,30,07,26,3.20
2015,08,30,07,27,4.80
2015,08,30,07,28,3.20
2015,08,30,07,29,3.20
2015,08,30,07,30,3.20
2015,08,30,07,31,3.20
2015,08,30,07,32,3.20
2015,08,30,07,33,6.40
2015,08,30,07,34,4.80
2015,08,30,07,35,3.20
2015,08,30,07,36,4.80
2015,08,30,07,37,4.80
2015,08,30,07,38,3.20
2015,08,30,07,39,3.20
2015,08,30,07,40,3.20
2015,08,30,07,41,3.20
2015,08,30,07,42,3.20
2015,08,30,07,43,4.80
2015,08,30,07,44,3.20
2015,08,30,07,45,6.40
2015,08,30,07,46,6.40
2015,08,30,07,47,4.80
2015,08,30,07,48,3.20
2015,08,30,07,49,4.80
2015,08,30,07,50,4.80
2015,08,30,07,51,3.20
2015,08,30,07,52,3.20
2015,08,30,07,53,3.20
2015,08,30,07,54,3.20
2015,08,30,07,55,4.80
2015,08,30,07,56,4.80
2015,08,30,07,57,1.60
2015,08,30,07,58,3.20
2015,08,30,07,59,3.20
2015,08,30,08,00,3.20
2015,08,30,08,01,3.20
2015,08,30,08,02,3.20
2015,08,30,08,03,4.80
2015,08,30,08,04,4.80
2015,08,30,08,05,6.40
2015,08,30,08,06,6.40
2015,08,30,08,07,9.60
2015,08,30,08,08,6.40
2015,08,30,08,09,4.80
2015,08,30,08,10,4.80
2015,08,30,08,11,3.20
2015,08,30,08,12,3.20
2015,08,30,08,13,1.60
2015,08,30,08,14,3.20
2015,08,30,08,15,3.20
2015,08,30,08,16,3.20
2015,08,30,08,17,4.80
2015,08,30,08,18,6.40
2015,08,30,08,19,4.80
2015,08,30,08,20,4.80
2015,08,30,08,21,3.20
2015,08,30,08,22,3.20
2015,08,30,08,23,6.40
2015,08,30,08,24,6.40
2015,08,30,08,25,8.10
2015,08,30,08,26,6.40
2015,08,30,08,27,6.40
2015,08,30,08,28,4.80
2015,08,30,08,29,6.40
2015,08,30,08,30,3.20
2015,08,30,08,31,6.40
2015,08,30,08,32,6.40
2015,08,30,08,33,6.40
2015,08,30,08,34,6.40
2015,08,30,08,35,3.20
2015,08,30,08,36,6.40
2015,08,30,08,37,6.40
2015,08,30,08,38,4.80
2015,08,30,08,39,6.40
2015,08,30,08,40,4.80
2015,08,30,08,41,6.40
2015,08,30,08,42,6.40
2015,08,30,08,43,4.80
2015,08,30,08,44,8.10
2015,08,30,08,45,9.60
2015,08,30,08,46,6.40
2015,08,30,08,47,3.20
2015,08,30,08,48,3.20
2015,08,30,08,49,3.20
2015,08,30,08,50,3.20
2015,08,30,08,51,4.80
2015,08,30,08,52,4.80
2015,08,30,08,53,4.80
2015,08,30,08,54,3.20
2015,08,30,08,55,3.20
2015,08,30,08,56,4.80
2015,08,30,08,57,4.80
2015,08,30,08,58,3.20
2015,08,30,08,59,6.40
2015,08,30,09,00,4.80
2015,08,30,09,01,6.40
2015,08,30,09,02,8.10
2015,08,30,09,03,6.40
2015,08,30,09,04,4.80
2015,08,30,09,05,4.80
2015,08,30,09,06,6.40
2015,08,30,09,07,6.40
2015,08,30,09,08,8.10
2015,08,30,09,09,11.30
2015,08,30,09,10,9.60
2015,08,30,09,11,8.10
2015,08,30,09,12,9.60
2015,08,30,09,13,6.40
2015,08,30,09,14,6.40
2015,08,30,09,15,8.10
2015,08,30,09,16,9.60
2015,08,30,09,17,8.10
2015,08,30,09,18,8.10
2015,08,30,09,19,8.10
2015,08,30,09,20,6.40
2015,08,30,09,21,4.80
2015,08,30,09,22,6.40
2015,08,30,09,23,3.20
2015,08,30,09,24,4.80
2015,08,30,09,25,6.40
2015,08,30,09,26,6.40
2015,08,30,09,27,8.10
2015,08,30,09,28,8.10
2015,08,30,09,29,6.40
2015,08,30,09,30,6.40
2015,08,30,09,31,6.40
2015,08,30,09,32,8.10
2015,08,30,09,33,8.10
2015,08,30,09,34,8.10
2015,08,30,09,35,8.10
2015,08,30,09,36,8.10
2015,08,30,09,37,11.30
2015,08,30,09,38,8.10
2015,08,30,09,39,6.40
2015,08,30,09,40,3.20
2015,08,30,09,41,4.80
2015,08,30,09,42,6.40
2015,08,30,09,43,8.10
2015,08,30,09,44,9.60
2015,08,30,09,45,12.90
2015,08,30,09,46,8.10
2015,08,30,09,47,12.90
2015,08,30,09,48,11.30
2015,08,30,09,49,11.30
2015,08,30,09,50,9.60
2015,08,30,09,51,9.60
2015,08,30,09,52,6.40
2015,08,30,09,53,4.80
2015,08,30,09,54,8.10
2015,08,30,09,55,6.40
2015,08,30,09,56,9.60
2015,08,30,09,57,11.30
2015,08,30,09,58,12.90
2015,08,30,09,59,6.40
2015,08,30,10,00,11.30
2015,08,30,10,01,12.90
2015,08,30,10,02,12.90
2015,08,30,10,03,14.50
2015,08,30,10,04,11.30
2015,08,30,10,05,12.90
2015,08,30,10,06,14.50
2015,08,30,10,07,9.60
2015,08,30,10,08,12.90
2015,08,30,10,09,11.30
2015,08,30,10,10,11.30
2015,08,30,10,11,11.30
2015,08,30,10,12,12.90
2015,08,30,10,13,8.10
2015,08,30,10,14,16.10
2015,08,30,10,15,8.10
2015,08,30,10,16,16.10
2015,08,30,10,17,12.90
2015,08,30,10,18,17.70
2015,08,30,10,19,9.60
2015,08,30,10,20,9.60
2015,08,30,10,21,11.30
2015,08,30,10,22,9.60
2015,08,30,10,23,11.30
2015,08,30,10,24,8.10
2015,08,30,10,25,6.40
2015,08,30,10,26,9.60
2015,08,30,10,27,11.30
2015,08,30,10,28,6.40
2015,08,30,10,29,12.90
2015,08,30,10,30,9.60
2015,08,30,10,31,11.30
2015,08,30,10,32,9.60
2015,08,30,10,33,9.60
2015,08,30,10,34,11.30
2015,08,30,10,35,6.40
2015,08,30,10,36,8.10
2015,08,30,10,37,9.60
2015,08,30,10,38,8.10
2015,08,30,10,39,11.30
2015,08,30,10,40,11.30
2015,08,30,10,41,12.90
2015,08,30,10,42,16.10
2015,08,30,10,43,11.30
2015,08,30,10,44,11.30
2015,08,30,10,45,6.40
2015,08,30,10,46,11.30
2015,08,30,10,47,12.90
2015,08,30,10,48,12.90
2015,08,30,10,49,14.50
2015,08,30,10,50,8.10
2015,08,30,10,51,12.90
2015,08,30,10,52,9.60
2015,08,30,10,53,12.90
2015,08,30,10,54,16.10
2015,08,30,10,55,17.70
2015,08,30,10,56,12.90
2015,08,30,10,57,11.30
2015,08,30,10,58,12.90
2015,08,30,10,59,11.30
2015,08,30,11,00,11.30
2015,08,30,11,01,11.30
2015,08,30,11,02,19.30
2015,08,30,11,03,11.30
2015,08,30,11,04,9.60
2015,08,30,11,05,12.90
2015,08,30,11,06,14.50
2015,08,30,11,07,16.10
2015,08,30,11,08,12.90
2015,08,30,11,09,11.30
2015,08,30,11,10,14.50
2015,08,30,11,11,8.10
2015,08,30,11,12,11.30
2015,08,30,11,13,12.90
2015,08,30,11,14,12.90
2015,08,30,11,15,16.10
2015,08,30,11,16,12.90
2015,08,30,11,17,11.30
2015,08,30,11,18,9.60
2015,08,30,11,19,12.90
2015,08,30,11,20,14.50
2015,08,30,11,21,12.90
2015,08,30,11,22,14.50
2015,08,30,11,23,11.30
2015,08,30,11,24,19.30
2015,08,30,11,25,14.50
2015,08,30,11,26,14.50
2015,08,30,11,27,17.70
2015,08,30,11,28,16.10
2015,08,30,11,29,16.10
2015,08,30,11,30,14.50
2015,08,30,11,31,16.10
2015,08,30,11,32,14.50
2015,08,30,11,33,14.50
2015,08,30,11,34,12.90
2015,08,30,11,35,16.10
2015,08,30,11,36,12.90
2015,08,30,11,37,14.50
2015,08,30,11,38,14.50
2015,08,30,11,39,14.50
2015,08,30,11,40,14.50
2015,08,30,11,41,9.60
2015,08,30,11,42,19.30
2015,08,30,11,43,9.60
2015,08,30,11,44,17.70
2015,08,30,11,45,16.10
2015,08,30,11,46,16.10
2015,08,30,11,47,12.90
2015,08,30,11,48,16.10
2015,08,30,11,49,11.30
2015,08,30,11,50,9.60
2015,08,30,11,51,11.30
2015,08,30,11,52,17.70
2015,08,30,11,53,12.90
2015,08,30,11,54,17.70
2015,08,30,11,55,17.70
2015,08,30,11,56,16.10
2015,08,30,11,57,11.30
2015,08,30,11,58,19.30
2015,08,30,11,59,17.70
2015,08,30,12,00,17.70
2015,08,30,12,01,16.10
2015,08,30,12,02,20.90
2015,08,30,12,03,19.30
2015,08,30,12,04,19.30
2015,08,30,12,05,17.70
2015,08,30,12,06,20.90
2015,08,30,12,07,22.50
2015,08,30,12,08,19.30
2015,08,30,12,09,22.50
2015,08,30,12,10,19.30
2015,08,30,12,11,20.90
2015,08,30,12,12,17.70
2015,08,30,12,13,22.50
2015,08,30,12,14,17.70
2015,08,30,12,15,16.10
2015,08,30,12,16,17.70
2015,08,30,12,17,20.90
2015,08,30,12,18,16.10
2015,08,30,12,19,14.50
2015,08,30,12,20,11.30
2015,08,30,12,21,14.50
2015,08,30,12,22,16.10
2015,08,30,12,23,14.50
2015,08,30,12,24,8.10
2015,08,30,12,25,11.30
2015,08,30,12,26,12.90
2015,08,30,12,27,12.90
2015,08,30,12,28,12.90
2015,08,30,12,29,14.50
2015,08,30,12,30,14.50
2015,08,30,12,31,14.50
2015,08,30,12,32,14.50
2015,08,30,12,33,9.60
2015,08,30,12,34,11.30
2015,08,30,12,35,12.90
2015,08,30,12,36,9.60
2015,08,30,12,37,16.10
2015,08,30,12,38,11.30
2015,08,30,12,39,17.70
2015,08,30,12,40,9.60
2015,08,30,12,41,14.50
2015,08,30,12,42,11.30
2015,08,30,12,43,24.20
2015,08,30,12,44,25.70
2015,08,30,12,45,16.10
2015,08,30,12,46,19.30
2015,08,30,12,47,22.50
2015,08,30,12,48,16.10
2015,08,30,12,49,17.70
2015,08,30,12,50,16.10
2015,08,30,12,51,16.10
2015,08,30,12,52,11.30
2015,08,30,12,53,16.10
2015,08,30,12,54,14.50
2015,08,30,12,55,20.90
2015,08,30,12,56,17.70
2015,08,30,12,57,24.20
2015,08,30,12,58,20.90
2015,08,30,12,59,17.70
2015,08,30,13,00,24.20
2015,08,30,13,01,20.90
2015,08,30,13,02,19.30
2015,08,30,13,03,14.50
2015,08,30,13,04,14.50
2015,08,30,13,05,11.30
2015,08,30,13,06,17.70
2015,08,30,13,07,16.10
2015,08,30,13,08,9.60
2015,08,30,13,09,11.30
2015,08,30,13,10,12.90
2015,08,30,13,11,12.90
2015,08,30,13,12,14.50
2015,08,30,13,13,14.50
2015,08,30,13,14,16.10
2015,08,30,13,15,12.90
2015,08,30,13,16,12.90
2015,08,30,13,17,14.50
2015,08,30,13,18,16.10
2015,08,30,13,19,17.70
2015,08,30,13,20,20.90
2015,08,30,13,21,20.90
2015,08,30,13,22,17.70
2015,08,30,13,23,16.10
2015,08,30,13,24,14.50
2015,08,30,13,25,16.10
2015,08,30,13,26,20.90
2015,08,30,13,27,24.20
2015,08,30,13,28,24.20
2015,08,30,13,29,17.70
2015,08,30,13,30,17.70
2015,08,30,13,31,17.70
2015,08,30,13,32,19.30
2015,08,30,13,33,27.40
2015,08,30,13,34,20.90
2015,08,30,13,35,16.10
2015,08,30,13,36,19.30
2015,08,30,13,37,14.50
2015,08,30,13,38,14.50
2015,08,30,13,39,17.70
2015,08,30,13,40,24.20
2015,08,30,13,41,25.70
2015,08,30,13,42,27.40
2015,08,30,13,43,19.30
2015,08,30,13,44,20.90
2015,08,30,13,45,24.20
2015,08,30,13,46,19.30
2015,08,30,13,47,16.10
2015,08,30,13,48,22.50
2015,08,30,13,49,22.50
2015,08,30,13,50,19.30
2015,08,30,13,51,24.20
2015,08,30,13,52,29.00
2015,08,30,13,53,19.30
2015,08,30,13,54,20.90
2015,08,30,13,55,16.10
2015,08,30,13,56,17.70
2015,08,30,13,57,22.50
2015,08,30,13,58,14.50
2015,08,30,13,59,20.90
2015,08,30,14,00,19.30
2015,08,30,14,01,16.10
2015,08,30,14,02,19.30
2015,08,30,14,03,19.30
2015,08,30,14,04,22.50
2015,08,30,14,05,16.10
2015,08,30,14,06,22.50
2015,08,30,14,07,19.30
2015,08,30,14,08,20.90
2015,08,30,14,09,25.70
2015,08,30,14,10,25.70
2015,08,30,14,11,24.20
2015,08,30,14,12,14.50
2015,08,30,14,13,25.70
2015,08,30,14,14,17.70
2015,08,30,14,15,19.30
2015,08,30,14,16,16.10
2015,08,30,14,17,22.50
2015,08,30,14,18,19.30
2015,08,30,14,19,25.70
2015,08,30,14,20,17.70
2015,08,30,14,21,19.30
2015,08,30,14,22,24.20
2015,08,30,14,23,17.70
2015,08,30,14,24,25.70
2015,08,30,14,25,14.50
2015,08,30,14,26,17.70
2015,08,30,14,27,11.30
2015,08,30,14,28,19.30
2015,08,30,14,29,20.90
2015,08,30,14,30,16.10
2015,08,30,14,31,14.50
2015,08,30,14,32,22.50
2015,08,30,14,33,14.50
2015,08,30,14,34,11.30
2015,08,30,14,35,24.20
2015,08,30,14,36,22.50
2015,08,30,14,37,25.70
2015,08,30,14,38,16.10
2015,08,30,14,39,14.50
2015,08,30,14,40,16.10
2015,08,30,14,41,9.60
2015,08,30,14,42,17.70
2015,08,30,14,43,14.50
2015,08,30,14,44,17.70
2015,08,30,14,45,22.50
2015,08,30,14,46,17.70
2015,08,30,14,47,17.70
2015,08,30,14,48,20.90
2015,08,30,14,49,20.90
2015,08,30,14,50,22.50
2015,08,30,14,51,22.50
2015,08,30,14,52,19.30
2015,08,30,14,53,22.50
2015,08,30,14,54,20.90
2015,08,30,14,55,16.10
2015,08,30,14,56,12.90
2015,08,30,14,57,17.70
2015,08,30,14,58,16.10
2015,08,30,14,59,16.10
2015,08,30,15,00,17.70
2015,08,30,15,01,12.90
2015,08,30,15,02,14.50
2015,08,30,15,03,14.50
2015,08,30,15,04,19.30
2015,08,30,15,05,19.30
2015,08,30,15,06,20.90
2015,08,30,15,07,24.20
2015,08,30,15,08,22.50
2015,08,30,15,09,22.50
2015,08,30,15,10,16.10
2015,08,30,15,11,22.50
2015,08,30,15,12,19.30
2015,08,30,15,13,17.70
2015,08,30,15,14,29.00
2015,08,30,15,15,22.50
2015,08,30,15,16,20.90
2015,08,30,15,17,19.30
2015,08,30,15,18,20.90
2015,08,30,15,19,22.50
2015,08,30,15,20,16.10
2015,08,30,15,21,16.10
2015,08,30,15,22,16.10
2015,08,30,15,23,11.30
2015,08,30,15,24,16.10
2015,08,30,15,25,14.50
2015,08,30,15,26,17.70
2015,08,30,15,27,17.70
2015,08,30,15,28,20.90
2015,08,30,15,29,12.90
2015,08,30,15,30,19.30
2015,08,30,15,31,19.30
2015,08,30,15,32,17.70
2015,08,30,15,33,16.10
2015,08,30,15,34,20.90
2015,08,30,15,35,16.10
2015,08,30,15,36,12.90
2015,08,30,15,37,12.90
2015,08,30,15,38,12.90
2015,08,30,15,39,20.90
2015,08,30,15,40,14.50
2015,08,30,15,41,17.70
2015,08,30,15,42,14.50
2015,08,30,15,43,14.50
2015,08,30,15,44,17.70
2015,08,30,15,45,19.30
2015,08,30,15,46,16.10
2015,08,30,15,47,14.50
2015,08,30,15,48,16.10
2015,08,30,15,49,14.50
2015,08,30,15,50,9.60
2015,08,30,15,51,17.70
2015,08,30,15,52,14.50
2015,08,30,15,53,8.10
2015,08,30,15,54,11.30
2015,08,30,15,55,11.30
2015,08,30,15,56,11.30
2015,08,30,15,57,12.90
2015,08,30,15,58,17.70
2015,08,30,15,59,16.10
2015,08,30,16,00,12.90
2015,08,30,16,01,14.50
2015,08,30,16,02,14.50
2015,08,30,16,03,14.50
2015,08,30,16,04,20.90
2015,08,30,16,05,16.10
2015,08,30,16,06,16.10
2015,08,30,16,07,14.50
2015,08,30,16,08,16.10
2015,08,30,16,09,17.70
2015,08,30,16,10,25.70
2015,08,30,16,11,25.70
2015,08,30,16,12,17.70
2015,08,30,16,13,17.70
2015,08,30,16,14,12.90
2015,08,30,16,15,11.30
2015,08,30,16,16,16.10
2015,08,30,16,17,17.70
2015,08,30,16,18,22.50
2015,08,30,16,19,17.70
2015,08,30,16,20,14.50
2015,08,30,16,21,12.90
2015,08,30,16,22,17.70
2015,08,30,16,23,17.70
2015,08,30,16,24,19.30
2015,08,30,16,25,19.30
2015,08,30,16,26,17.70
2015,08,30,16,27,19.30
2015,08,30,16,28,19.30
2015,08,30,16,29,19.30
2015,08,30,16,30,14.50
2015,08,30,16,31,17.70
2015,08,30,16,32,16.10
2015,08,30,16,33,16.10
2015,08,30,16,34,12.90
2015,08,30,16,35,19.30
2015,08,30,16,36,19.30
2015,08,30,16,37,22.50
2015,08,30,16,38,24.20
2015,08,30,16,39,22.50
2015,08,30,16,40,20.90
2015,08,30,16,41,17.70
2015,08,30,16,42,16.10
2015,08,30,16,43,14.50
2015,08,30,16,44,14.50
2015,08,30,16,45,12.90
2015,08,30,16,46,6.40
2015,08,30,16,47,11.30
2015,08,30,16,48,14.50
2015,08,30,16,49,17.70
2015,08,30,16,50,20.90
2015,08,30,16,51,16.10
2015,08,30,16,52,16.10
2015,08,30,16,53,16.10
2015,08,30,16,54,17.70
2015,08,30,16,55,14.50
2015,08,30,16,56,12.90
2015,08,30,16,57,16.10
2015,08,30,16,58,16.10
2015,08,30,16,59,19.30
2015,08,30,17,00,17.70
2015,08,30,17,01,17.70
2015,08,30,17,02,20.90
2015,08,30,17,03,19.30
2015,08,30,17,04,19.30
2015,08,30,17,05,17.70
2015,08,30,17,06,12.90
2015,08,30,17,07,19.30
2015,08,30,17,08,14.50
2015,08,30,17,09,14.50
2015,08,30,17,10,19.30
2015,08,30,17,11,14.50
2015,08,30,17,12,8.10
2015,08,30,17,13,8.10
2015,08,30,17,14,11.30
2015,08,30,17,15,9.60
2015,08,30,17,16,14.50
2015,08,30,17,17,12.90
2015,08,30,17,18,11.30
2015,08,30,17,19,14.50
2015,08,30,17,20,16.10
2015,08,30,17,21,12.90
2015,08,30,17,22,12.90
2015,08,30,17,23,11.30
2015,08,30,17,24,12.90
2015,08,30,17,25,9.60
2015,08,30,17,26,16.10
2015,08,30,17,27,16.10
2015,08,30,17,28,14.50
2015,08,30,17,29,19.30
2015,08,30,17,30,20.90
2015,08,30,17,31,17.70
2015,08,30,17,32,16.10
2015,08,30,17,33,16.10
2015,08,30,17,34,11.30
2015,08,30,17,35,16.10
2015,08,30,17,36,17.70
2015,08,30,17,37,16.10
2015,08,30,17,38,16.10
2015,08,30,17,39,19.30
2015,08,30,17,40,19.30
2015,08,30,17,41,14.50
2015,08,30,17,42,20.90
2015,08,30,17,43,16.10
2015,08,30,17,44,11.30
2015,08,30,17,45,12.90
2015,08,30,17,46,14.50
2015,08,30,17,47,14.50
2015,08,30,17,48,17.70
2015,08,30,17,49,9.60
2015,08,30,17,50,12.90
2015,08,30,17,51,9.60
2015,08,30,17,52,14.50